Back to catalog

STARLINK-33801

AliveCommunicationsVLEO
NORAD 63963·PAYLOAD·🇺🇸 United States

Launched May 13, 2025 from Cape Canaveral Space Force Station

Loading…

Next Passes (next 24 hours)

TLE

FreshSource: CelesTrak SupGP

Epoch: Sep 14, 2026, 22:51 UTC

1 63963C 25099M   26257.95256944 -.00019343  00000+0 -70066-3 0  2578
2 63963  42.9998 187.2263 0001731 271.0531  71.6265 15.27585607    14

Track STARLINK-33801 in real time with AllMySat

Download on the App Store